CDT,Max TemperatureF,Mean TemperatureF,Min TemperatureF,Max Dew PointF,MeanDew PointF,Min DewpointF,Max Humidity, Mean Humidity, Min Humidity, Max Sea Level PressureIn, Mean Sea Level PressureIn, Min Sea Level PressureIn, Max VisibilityMiles, Mean VisibilityMiles, Min VisibilityMiles, Max Wind SpeedMPH, Mean Wind SpeedMPH, Max Gust SpeedMPH,PrecipitationIn, CloudCover, Events, WindDirDegrees
2011-10-1,68,52,35,34,30,27,75,47,23,30.32,30.22,30.16,10,10,2,17,8,23,0.00,0,,158
2011-10-2,78,62,46,37,34,30,58,40,21,30.21,30.15,30.09,10,10,4,20,13,24,0.00,0,,192
2011-10-3,80,64,48,37,35,34,58,37,18,30.20,30.15,30.08,10,10,8,20,11,25,0.00,0,,178
2011-10-4,84,67,50,45,39,34,54,36,25,30.11,30.06,29.98,10,10,10,20,12,28,0.00,0,,166
2011-10-5,82,70,57,45,41,34,59,36,17,30.06,30.01,29.95,10,10,10,23,15,30,0.00,0,,179
2011-10-6,78,66,53,39,38,36,54,36,23,29.98,29.93,29.86,10,10,4,29,15,38,0.00,0,,156
2011-10-7,80,72,64,57,49,39,53,46,35,29.87,29.83,29.79,10,10,2,34,22,50,0.00,2,,172
2011-10-8,75,68,60,55,54,50,82,58,44,30.06,29.99,29.87,10,10,8,26,17,37,0.05,4,Thunderstorm,195
2011-10-9,78,66,55,55,51,45,94,61,30,30.16,30.10,30.03,10,9,0,22,8,30,0.00,3,,127
2011-10-10,68,62,55,54,48,45,88,65,46,30.03,29.95,29.87,10,10,10,23,13,26,0.00,3,,174
2011-10-11,71,60,50,50,45,43,82,58,35,29.90,29.81,29.73,10,10,10,18,11,24,0.00,2,Thunderstorm,179
2011-10-12,62,55,48,52,47,43,87,72,52,29.76,29.72,29.68,10,10,5,17,8,43,0.19,4,Thunderstorm,262
2011-10-13,64,54,44,45,39,34,82,62,37,29.77,29.73,29.67,10,10,10,25,13,36,0.00,1,,295
2011-10-14,55,48,41,37,35,30,76,66,38,29.92,29.82,29.72,10,10,10,31,17,39,0.00,3,,294
2011-10-15,60,48,35,37,31,27,81,56,27,29.98,29.90,29.82,10,10,10,15,9,20,0.00,2,,277
2011-10-16,55,46,37,37,31,23,81,59,31,30.00,29.93,29.82,10,10,10,26,12,32,0.00,1,,298
2011-10-17,55,44,32,28,25,23,75,51,29,29.97,29.95,29.90,10,10,10,25,11,31,0.00,0,,284
2011-10-18,44,38,32,28,22,18,75,58,34,30.08,30.01,29.92,10,10,10,31,16,37,0.00,2,,327
2011-10-19,42,33,24,27,23,16,74,64,53,30.14,30.09,30.04,10,10,10,18,12,23,0.00,5,,346
2011-10-20,51,40,28,30,24,18,86,63,35,30.05,30.01,29.96,10,10,10,16,10,23,0.00,0,,324
2011-10-21,64,45,26,36,29,19,80,55,32,30.07,30.00,29.95,10,10,10,16,8,23,0.00,0,,243
2011-10-22,60,46,33,36,32,27,81,55,31,30.15,30.08,30.01,10,10,10,12,5,,0.00,1,,226
2011-10-23,66,54,41,45,38,30,76,62,34,29.99,29.90,29.84,10,10,4,29,13,34,0.00,3,,257
2011-10-24,66,50,35,37,31,27,87,55,23,30.05,29.99,29.93,10,10,9,12,7,,0.00,1,,225
2011-10-25,55,48,42,36,33,28,76,59,44,30.06,29.83,29.71,10,10,10,25,14,33,0.05,0,,19
2011-10-26,46,42,35,36,32,27,87,70,50,30.11,30.07,30.02,10,10,8,16,8,16,0.00,3,,323
2011-10-27,50,38,26,28,21,18,80,56,28,30.12,30.08,30.05,10,10,10,16,8,20,0.00,1,,278
2011-10-28,53,42,30,25,20,14,65,45,24,30.12,30.06,30.01,10,10,10,30,14,34,0.00,1,,275
2011-10-29,53,38,24,21,18,12,69,44,26,30.09,29.99,29.87,10,10,10,18,9,25,0.00,1,,188
2011-10-30,48,42,37,32,26,21,75,54,39,30.01,29.89,29.82,10,10,10,31,14,39,0.00,4,,291
2011-10-31,57,40,24,28,22,18,80,52,25,30.04,29.98,29.91,10,10,8,17,9,22,0.00,0,,215